Volver al catálogo

SL-14 DEB

ActivoPO
NORAD 45282·DEBRIS·🇷🇺 Russia

Lanzado Aug 15, 1991 desde Plesetsk Cosmodrome

Loading…

Próximos Pases (próximas 24 horas)

TLE

ActualizadoSource: Space-Track

Época: Sep 14, 2026, 00:30 UTC

1 45282U 91056U   26257.02132943  .00000431  00000-0  10890-2 0  9996
2 45282  82.6169  95.9238 0021156 318.7462  41.2061 13.16955662316072

Sigue SL-14 DEB en tiempo real con AllMySat

Download on the App Store